Cincinnati, OH

1:58 PM EDT on October 17, 2017 (GMT -0400)
Cincinnati Municipal-Lunken

Weather History for KLUK - May, 2014

Change the Weather History Date:

Sunday, May 18, 2014

  Actual Average Record
Temperature  
Mean Temperature 50 °F -  
Max Temperature 64 °F 76 °F 94 °F (1962)
Min Temperature 37 °F 54 °F 37 °F (2014)
Degree Days  
Heating Degree Days 14    
Moisture  
Dew Point 39 °F    
Average Humidity 80    
Maximum Humidity 100    
Minimum Humidity 35    
Precipitation  
Precipitation 0.00 in - - ()
Sea Level Pressure  
Sea Level Pressure 30.29 in    
Wind  
Wind Speed 1 mph (NNE)    
Max Wind Speed 6 mph    
Max Gust Speed -    
Visibility 6 miles    
Events Fog    
Averages and records for this station are not official NWS values.
T = Trace of Precipitation, MM = Missing Value Source: NWS Daily Summary

Daily Weather History Graph

Daily Weather History Graph

Search for Another Location

Airport or City:

Trip Planner

Search our weather history database for the weather conditions in past years. The results will help you decide how hot, cold, wet, or windy it might be!

Date:

Astronomy

May. 18, 2014 Rise Set
Actual Time 6:22 AM EDT 8:46 PM EDT
Civil Twilight 5:51 AM EDT 9:17 PM EDT
Nautical Twilight 5:14 AM EDT 9:54 PM EDT
Astronomical Twilight 4:32 AM EDT 10:36 PM EDT
Moon No Moon Rise 10:09 AM EDT (5/18)
Length of Visible Light 15h 25m
Length of Day
14h 24m
Waning Gibbous, 81% of the Moon is Illuminated
May 18
Waning Gibbous
May 21
Last Quarter
May 28
New
Jun 5
First Quarter
Jun 13
Full

Hourly Weather History & Observations

Time (EDT) Temp. Windchill Dew Point Humidity Pressure Visibility Wind Dir Wind Speed Gust Speed Precip Events Conditions
12:53 AM 41.0 °F - 39.9 °F 96% 30.28 in 6.0 mi Calm Calm - N/A   Clear
1:53 AM 39.0 °F - 37.9 °F 96% 30.29 in 5.0 mi Calm Calm - N/A   Clear
2:04 AM 37.9 °F - 37.0 °F 97% 30.28 in 1.5 mi Calm Calm - N/A   Clear
2:13 AM 37.9 °F - 37.0 °F 97% 30.28 in 0.5 mi Calm Calm - N/A Fog Fog
2:30 AM 37.9 °F - 37.9 °F 100% 30.28 in 1.5 mi Calm Calm - N/A   Clear
2:38 AM 37.9 °F - 37.9 °F 100% 30.28 in 3.0 mi Calm Calm - N/A   Clear
2:53 AM 37.9 °F 35.5 °F 37.9 °F 100% 30.29 in 4.0 mi NE 3.5 mph - N/A   Clear
3:26 AM 37.0 °F 34.5 °F 37.0 °F 100% 30.28 in 2.5 mi NE 3.5 mph - N/A   Partly Cloudy
3:34 AM 37.9 °F - 37.0 °F 97% 30.28 in 1.5 mi Calm Calm - N/A   Mostly Cloudy
3:42 AM 37.0 °F 34.5 °F 37.0 °F 100% 30.28 in 2.0 mi NE 3.5 mph - N/A   Mostly Cloudy
3:47 AM 37.4 °F 33.8 °F 37.4 °F 100% 30.28 in 0.8 mi NE 4.6 mph - N/A   Mist
3:53 AM 37.0 °F 33.3 °F 37.0 °F 100% 30.29 in 0.2 mi NNE 4.6 mph - N/A Fog Fog
4:53 AM 37.9 °F - 37.9 °F 100% 30.29 in 0.2 mi Calm Calm - N/A Fog Fog
5:53 AM 37.4 °F - 37.4 °F 100% 30.29 in 0.2 mi Calm Calm - N/A Fog Fog
6:53 AM 37.9 °F - 37.9 °F 100% 30.31 in 0.2 mi Calm Calm - N/A Fog Fog
7:53 AM 37.9 °F - 37.9 °F 100% 30.32 in 0.2 mi Calm Calm - N/A Fog Fog
8:49 AM 42.8 °F - 42.8 °F 100% 30.32 in 1.0 mi Calm Calm - N/A   Mist
8:53 AM 42.1 °F - 42.1 °F 100% 30.33 in 1.5 mi Calm Calm - N/A   Mostly Cloudy
9:03 AM 43.0 °F - 43.0 °F 100% 30.33 in 3.0 mi Calm Calm - N/A   Mostly Cloudy
9:13 AM 44.1 °F - 44.1 °F 100% 30.32 in 7.0 mi Calm Calm - N/A   Scattered Clouds
9:53 AM 51.1 °F - 46.0 °F 83% 30.33 in 10.0 mi Calm Calm - N/A   Clear
10:53 AM 57.9 °F - 37.9 °F 47% 30.32 in 10.0 mi North 5.8 mph - N/A   Clear
11:53 AM 59.0 °F - 37.0 °F 44% 30.32 in 10.0 mi Variable 4.6 mph - N/A   Clear
12:53 PM 59.0 °F - 37.9 °F 46% 30.32 in 10.0 mi NNE 3.5 mph - N/A   Mostly Cloudy
1:53 PM 62.1 °F - 37.9 °F 41% 30.30 in 10.0 mi Variable 3.5 mph - N/A   Scattered Clouds
2:53 PM 61.0 °F - 37.9 °F 42% 30.29 in 10.0 mi Variable 4.6 mph - N/A   Mostly Cloudy
3:53 PM 63.0 °F - 39.0 °F 41% 30.27 in 10.0 mi Variable 4.6 mph - N/A   Mostly Cloudy
4:53 PM 63.0 °F - 36.0 °F 37% 30.26 in 10.0 mi West 3.5 mph - N/A   Partly Cloudy
5:53 PM 64.0 °F - 36.0 °F 35% 30.25 in 10.0 mi Variable 3.5 mph - N/A   Mostly Cloudy
6:53 PM 63.0 °F - 37.0 °F 38% 30.25 in 10.0 mi NNE 5.8 mph - N/A   Clear
7:53 PM 60.1 °F - 39.0 °F 46% 30.25 in 10.0 mi ENE 3.5 mph - N/A   Clear
8:53 PM 54.0 °F - 42.1 °F 64% 30.26 in 10.0 mi Calm Calm - N/A   Clear
9:53 PM 48.9 °F - 42.1 °F 77% 30.27 in 10.0 mi Calm Calm - N/A   Clear
10:53 PM 46.0 °F - 43.0 °F 89% 30.28 in 10.0 mi Calm Calm - N/A   Clear
11:53 PM 44.1 °F - 41.0 °F 89% 30.27 in 10.0 mi Calm Calm - N/A   Clear